Regional Weather Roundup
Issued by NWS

Home | Current Version | Previous Version | Graphics & Text | Print | Product List | Glossary On
Versions: 1 2 3 4 5 6 7 8 9 10 11 12 13 14 15 16 17 18 19 20 21 22 23 24 25 26 27 28 29 30 31 32 33 34 35 36 37 38 39 40 41 42 43 44 45 46 47 48 49 50
000
ASUS43 KFSD 251002
RWRSD

WEATHER ROUNDUP FOR SOUTH DAKOTA
NATIONAL WEATHER SERVICE SIOUX FALLS SD
500 AM CDT THU MAY 25 2017

NOTE: "FAIR" INDICATES FEW OR NO CLOUDS BELOW 12,000 FEET WITH NO
SIGNIFICANT WEATHER AND/OR OBSTRUCTIONS TO VISIBILITY.


SDZ001>005-009-010-012>017-251100-
NORTHWEST AND NORTH CENTRAL SOUTH DAKOTA

CITY           SKY/WX    TMP DP  RH WIND       PRES   REMARKS
BUFFALO          N/A     46  44  93 NW10      29.38R
FAITH            N/A     47  44  90 N9        29.33R
MOBRIDGE       CLOUDY    52  43  71 SE16      29.35F
$$

SDZ012>016-024>037-041>051-057-063-072>074-251100-
SOUTHWEST AND SOUTH CENTRAL SOUTH DAKOTA

CITY           SKY/WX    TMP DP  RH WIND       PRES   REMARKS
RAPID CTY ARPT CLEAR     48  43  82 NW7       29.45R
PIERRE         CLEAR     54  43  66 SE22G31   29.33S
CUSTER         CLOUDY    49  33  54 NW6       29.53R
ELLSWORTH AFB  CLEAR     53  43  70 NW18G24   29.44R
PHILIP         CLEAR     54  47  77 W16       29.34R
PINE RIDGE     CLOUDY    54  50  86 W6        29.45R
SPEARFISH      FAIR      48  37  66 W6        29.50R
WINNER         FAIR      57  44  62 S13G25    29.41R
$$

SDZ004>011-016>023-039-040-251100-
NORTHEAST SOUTH DAKOTA

CITY           SKY/WX    TMP DP  RH WIND       PRES   REMARKS
ABERDEEN       LGT RAIN  51  44  77 SE16G23   29.50F
WATERTOWN      CLEAR     49  42  77 S16       29.56R
BROOKINGS      CLEAR     48  44  86 SE16      29.58F
SISSETON         N/A     43  43 100 S6        29.59R
$$

SDZ017-020-022-023-036>040-048>070-251100-
SOUTHEAST SOUTH DAKOTA

CITY           SKY/WX    TMP DP  RH WIND       PRES   REMARKS
SIOUX FALLS    PTCLDY    50  45  83 SE10      29.59S
HURON          LGT RAIN  52  44  74 SE15G26   29.50R
MITCHELL       PTCLDY    53  44  71 SE17      29.52S
YANKTON        CLOUDY    51  43  74 SE12      29.58S
$$

ABBREVIATIONS USED IN REMARKS
   TC - TEMPERATURE IN CELSIUS
  WCI - WIND CHILL INDEX
   HX - HEAT INDEX
  VSB - VISIBILITY




USA.gov is the U.S. government's official web portal to all federal, state and local government web resources and services.